Preview of NWS' New Version of Forecast
This preview is not operational and should not be used for support decisions.

Regional Weather Roundup (RWR)

Issued by National Weather Service (NWS)

                            
000
ASUS43 KTOP 181459
RWRKS 

WEATHER ROUNDUP FOR KANSAS
NATIONAL WEATHER SERVICE GOODLAND KS
900 AM CST MON FEB 18 2019

NOTE:  "FAIR" INDICATES FEW OR NO CLOUDS BELOW 12,000 FEET WITH NO
SIGNIFICANT WEATHER AND/OR OBSTRUCTIONS TO VISIBILITY.

KSZ001>006-013>018-027>032-041>047-181600-
NORTHWEST KANSAS
  
CITY           SKY/WX    TMP DP  RH WIND       PRES   REMARKS
GOODLAND       LGT SNOW   5   1  83 N9        30.32R FOG              
HAYS           CLOUDY    12   5  73 N10       30.46R WCI  -1          
HILL CITY      PTSUNNY   10   2  69 NW10      30.45R WCI  -4          
RUSSELL        PTSUNNY   10   5  80 NW10      30.46R WCI  -4          
$$

KSZ061>065-074>080-084>089-181600-
SOUTHWEST KANSAS
  
CITY           SKY/WX    TMP DP  RH WIND       PRES   REMARKS
DODGE CITY     LGT SNOW  12   5  73 N14       30.38R WCI  -3          
GARDEN CITY    LGT SNOW  10   6  84 N13       30.37R FOG     WCI  -5  
GREAT BEND     CLOUDY    13   6  74 N14       30.46R WCI  -2          
$$

KSZ066>073-081>083-090>101-181600-
SOUTHEAST KANSAS
  
CITY           SKY/WX    TMP DP  RH WIND       PRES   REMARKS
CHANUTE        SUNNY     21  14  74 N8        30.46R                  
COFFEYVILLE    SUNNY     21  15  78 NW12      30.48R WCI   9          
HUTCHINSON     PTSUNNY   16   8  71 NW13      30.47R WCI   2          
MEDICINE LODGE   N/A     18   8  65 N15       30.43R WCI   4          
NEWTON         SUNNY     16   8  71 NW12      30.47R WCI   3          
PARSONS        SUNNY     21  15  78 N8        30.47R                  
WICHITA INTL   CLOUDY    17   8  67 N14       30.47R WCI   3          
WICHITA JABRA  PTSUNNY   16   8  71 NW13      30.47R WCI   2          
WICHITA MCCONL PTSUNNY   16   7  67 N13       30.46R WCI   2          
WINFIELD       CLOUDY    18  10  71 N13       30.49R WCI   5          
$$

KSZ007>012-019>026-033>040-048>060-102>105-181600-
NORTHEAST KANSAS
  
CITY           SKY/WX    TMP DP  RH WIND       PRES   REMARKS
CONCORDIA      SUNNY      8   2  76 W12       30.48R WCI  -7          
EMPORIA        SUNNY     16  11  80 NW10      30.45R WCI   4          
LAWRENCE       MOSUNNY   15   8  73 NW12      30.45R WCI   2          
MANHATTAN      MOSUNNY   14   6  70 VRB6      30.49R                  
OLATHE IND     CLOUDY    13  10  88 NW13      30.43R WCI  -2          
OLATHE EXE     CLOUDY    14  10  84 N7        30.41R                  
SALINA         MOSUNNY   14   7  73 NW10      30.50R WCI   1          
TOPEKA BILLARD MOSUNNY   14   7  73 NW10      30.46R WCI   1          
TOPEKA FORBES  SUNNY     14   7  73 NW12      30.44R WCI   0          
$$